Content
SEND FEEDBACK

Daily
Averages
Monthly
Summary
United States of America

FUNTER BAY, ALASKA


Home > North America > United States > Alaska
Elevation: 2 feet     Latitude: 58 15N     Longitude: 134 54W

WEATHER
 
SELECT A DAY
Number of Records: 194,153;   Date Range: 1/1/95 - 8/30/14
 
SHARE

PRINT THIS DATA

[ ← Previous Day ]
WEATHER ALMANAC - JANUARY 31, 2013
[ Next Day → ]
[ °C ]   °F
Weather ElementAverageHighLow
Temperature31 °F33.1 °F (1:53 pm)28 °F (12:53 am)
Dewpoint29.6 °F32 °F (8:53 pm)27 °F (12:53 am)
Humidity94.8 %100 % (11:53 am)92 % (1:30 am)
Barometer29.97 in30.11 in (11:53 pm)29.89 in (4:47 am)
Wind Speed6.4 mph13.8 mph (7:53 am)
Wind Gust24.2 mph (7:53 am)
Weather ElementAverage
Visibility6.5 mi
Wind DirectionENE (75.8 °)

Weather ElementTotal
Precipitation0.33 in
Heating Degree Days34.5 (Base 65)
Averaged from 38 records on January 31, 2013
WEATHER CONDITIONS BREAKOUT
WIND DIRECTION BREAKOUT
WEATHER BY HOUR - JANUARY 31, 2013
[ °C ]   °F
Local TimeTemperatureDewpointHumidityBarometerVisibilityWind DirectionWind SpeedGust SpeedPrecipitationEventsConditions
12:53 AM28.0 °F27.0 °F96 %29.90 in6.0 miCalm0.02 inRainLight Freezing Rain
1:30 AM28.9 °F27.0 °F92 %29.90 in6.0 miENE (70°)4.6 mph0.01 inLight Ice Pellets
1:53 AM28.9 °F28.0 °F96 %29.91 in6.0 miEast (80°)4.6 mph0.02 inRainLight Freezing Rain
2:16 AM28.9 °F27.0 °F92 %29.91 in6.0 miEast (100°)9.2 mph0.01 inSnowLight Snow
2:34 AM28.9 °F27.0 °F92 %29.91 in6.0 miEast (100°)10.4 mph0.02 inSnowLight Ice Pellets
3:38 AM28.9 °F28.0 °F96 %29.90 in7.0 miENE (70°)3.5 mph0.02 inSnowLight Ice Pellets
3:53 AM30.0 °F28.0 °F92 %29.90 in7.0 miCalm0.03 inLight Ice Pellets
4:47 AM30.2 °F28.4 °F93 %29.89 in6.0 miCalm0.03 inRainLight Freezing Rain
4:53 AM30.0 °F28.0 °F92 %29.89 in6.0 miEast (90°)3.5 mph0.03 inRainLight Freezing Rain
5:12 AM30.0 °F28.9 °F96 %29.89 in7.0 miEast (90°)5.8 mph0.01 inLight Freezing Drizzle
5:53 AM30.0 °F28.0 °F92 %29.89 in10.0 miEast (80°)5.8 mph0.01 inLight Freezing Drizzle
5:59 AM30.0 °F28.0 °F92 %29.89 in10.0 miENE (70°)5.8 mph0.00 inRainLight Freezing Rain
6:53 AM30.0 °F28.9 °F96 %29.90 in10.0 miEast (80°)5.8 mph0.00 inRainLight Freezing Rain
7:53 AM30.0 °F28.9 °F96 %29.91 in7.0 miEast (90°)13.8 mph24.2 mph0.01 inRainLight Freezing Rain
8:03 AM30.0 °F28.9 °F96 %29.91 in8.0 miEast (100°)5.8 mph0.00 inRainLight Freezing Rain
8:53 AM30.9 °F28.9 °F92 %29.92 in9.0 miVariable5.8 mph0.00 inRainLight Freezing Rain
9:53 AM30.0 °F28.9 °F96 %29.94 in10.0 miESE (110°)6.9 mph0.01 inRainLight Freezing Rain
10:33 AM30.9 °F28.9 °F92 %29.95 in6.0 miENE (70°)9.2 mph0.00 inOvercast
10:53 AM32.0 °F30.0 °F92 %29.96 in10.0 miVariable4.6 mph0.00 inOvercast
11:31 AM30.9 °F30.0 °F96 %29.97 in5.0 miCalm0.00 inRainLight Freezing Rain
11:53 AM30.9 °F30.9 °F100 %29.97 in5.0 miESE (110°)4.6 mph0.00 inLight Freezing Drizzle
12:18 PM32.0 °F30.9 °F96 %29.97 in3.0 miEast (100°)4.6 mph0.00 inLight Drizzle
12:53 PM32.0 °F30.9 °F96 %29.98 in2.5 miEast (80°)4.6 mph0.00 inLight Drizzle
1:20 PM32.0 °F30.9 °F96 %29.98 in3.0 miEast (100°)4.6 mph0.00 inRainLight Rain
1:51 PM32.0 °F30.2 °F93 %29.99 in3.0 miEast (90°)8.1 mph0.00 inRainLight Rain
1:53 PM33.1 °F30.9 °F92 %29.99 in3.0 miEast (90°)8.1 mph0.00 inRainLight Rain
2:53 PM33.1 °F30.9 °F92 %30.01 in3.0 miENE (60°)5.8 mph0.01 inRainLight Rain
3:53 PM33.1 °F30.9 °F92 %30.02 in5.0 miEast (100°)8.1 mph0.01 inRainLight Rain
4:53 PM32.0 °F30.9 °F96 %30.03 in6.0 miEast (80°)8.1 mph0.01 inRainLight Rain
5:35 PM32.0 °F30.9 °F96 %30.03 in7.0 miEast (90°)8.1 mph0.01 inRainLight Rain
5:53 PM33.1 °F30.9 °F92 %30.03 in10.0 miEast (100°)10.4 mph0.02 inRainLight Rain
6:22 PM32.0 °F30.9 °F96 %30.04 in10.0 miEast (80°)8.1 mph0.00 inRainLight Rain
6:53 PM33.1 °F30.9 °F92 %30.04 in8.0 miESE (110°)11.5 mph0.00 inRainLight Rain
7:53 PM32.0 °F30.9 °F96 %30.05 in9.0 miESE (110°)10.4 mph0.01 inRainLight Rain
8:53 PM32.0 °F32.0 °F100 %30.07 in7.0 miEast (100°)9.2 mph0.00 inRainLight Rain
9:53 PM32.0 °F32.0 °F100 %30.09 in3.0 miEast (90°)6.9 mph0.01 inRainLight Rain
10:53 PM32.0 °F32.0 °F100 %30.10 in5.0 miEast (80°)6.9 mph0.01 inRainLight Rain
11:53 PM32.0 °F32.0 °F100 %30.11 in7.0 miESE (110°)8.1 mph0.01 inLight Drizzle
Hourly data recorded from PAJN, located miles away from Funter Bay, Alaska







STORIES FROM OUR PARTNERS